TimeMST,TemperatureF,Dew PointF,Humidity,Sea Level PressureIn,VisibilityMPH,Wind Direction,Wind SpeedMPH,Gust SpeedMPH,PrecipitationIn,Events,Conditions,WindDirDegrees,DateUTC
12:53 AM,26.1,15.1,63,30.29,10.0,South,8.1,-,N/A,,Clear,180,2012-12-05 07:53:00
1:53 AM,24.1,15.1,69,30.27,10.0,SSW,5.8,-,N/A,,Clear,210,2012-12-05 08:53:00
2:53 AM,21.9,15.1,75,30.27,10.0,Calm,Calm,-,N/A,,Clear,0,2012-12-05 09:53:00
3:53 AM,24.1,16.0,71,30.25,10.0,SSE,3.5,-,N/A,,Clear,150,2012-12-05 10:53:00
4:53 AM,23.0,17.1,78,30.27,10.0,South,3.5,-,N/A,,Partly Cloudy,170,2012-12-05 11:53:00
5:53 AM,24.1,18.0,77,30.25,10.0,SSE,4.6,-,N/A,,Clear,150,2012-12-05 12:53:00
7:53 AM,25.0,19.0,78,30.27,10.0,SE,3.5,-,N/A,,Clear,130,2012-12-05 14:53:00
8:53 AM,32.0,24.1,73,30.21,10.0,Calm,Calm,-,N/A,,Clear,0,2012-12-05 15:53:00
9:53 AM,37.9,25.0,60,30.18,10.0,NW,5.8,-,N/A,,Clear,320,2012-12-05 16:53:00
10:53 AM,46.0,26.1,46,30.09,10.0,North,5.8,-,N/A,,Scattered Clouds,350,2012-12-05 17:53:00
12:53 PM,52.0,19.9,28,29.99,10.0,North,9.2,-,N/A,,Mostly Cloudy,10,2012-12-05 19:53:00
1:53 PM,48.0,18.0,30,29.99,10.0,NNW,11.5,-,N/A,,Scattered Clouds,330,2012-12-05 20:53:00
2:53 PM,48.9,19.0,31,30.01,10.0,NE,3.5,-,N/A,,Mostly Cloudy,50,2012-12-05 21:53:00
3:53 PM,45.0,19.0,36,30.03,10.0,NNW,10.4,-,N/A,,Overcast,330,2012-12-05 22:53:00
4:53 PM,43.0,21.0,42,30.06,10.0,Calm,Calm,-,N/A,,Overcast,0,2012-12-05 23:53:00
5:53 PM,39.0,21.9,50,30.06,10.0,Calm,Calm,-,0.00,,Overcast,0,2012-12-06 00:53:00
6:53 PM,37.9,24.1,57,30.06,9.0,WNW,3.5,-,0.00,Snow,Light Snow,300,2012-12-06 01:53:00
7:53 PM,37.0,24.1,59,30.09,10.0,SW,4.6,-,0.00,,Overcast,220,2012-12-06 02:53:00
8:53 PM,39.0,24.1,55,30.03,10.0,Calm,Calm,-,N/A,,Overcast,0,2012-12-06 03:53:00
9:53 PM,39.0,27.0,62,29.99,10.0,SE,9.2,-,N/A,,Overcast,140,2012-12-06 04:53:00
10:53 PM,36.0,27.0,70,29.95,10.0,South,5.8,-,N/A,,Overcast,190,2012-12-06 05:53:00
11:53 PM,35.1,27.0,72,29.92,10.0,SSW,4.6,-,N/A,,Overcast,210,2012-12-06 06:53:00